Volver al catálogo

STARLINK-11249

ActivoComunicacionesVLEO
NORAD 60728·PAYLOAD·🇺🇸 United States

Lanzado Aug 28, 2024 desde Cape Canaveral Space Force Station

Loading…

Próximos Pases (próximas 24 horas)

TLE

ActualizadoSource: CelesTrak SupGP

Época: Sep 14, 2026, 22:42 UTC

1 60728C 24152J   26257.94631944  .00074269  00000+0  61155-3 0  2574
2 60728  53.1575 263.1488 0001190  97.6191 198.0026 15.69681417    12

Sigue STARLINK-11249 en tiempo real con AllMySat

Download on the App Store